Weather in Udmurtskiy Toymobash

Russia / Udmurt Republic     56°15′28″N   52°27′56″E
temp.,
°C
wind,
m/s
gust,
m/s
humid.,
%
clouds,
%
prec.,
mm/h
press.,
hPa
HPBL,
m
21 april, wed
wed2101:00+2se32524 0.0 103121
04:00+1ese3355100 0.0 103145
07:00+2se31053100 0.0 1031292
10:00+7sse81137100 0.0 1030876
13:00+9sse81132100 0.0 10281148
16:00+9sse71239100 0.1 10271168
19:00+8s61244100 0.0 1027563
22:00+6s61451100 0.1 1026770
22 april, thu
thu2201:00+3sse71795100 2.0 1026843
04:00+2sse71597100 5.8 1026712
07:00+2s61397100 2.2 1026572
10:00+4s61196100 2.5 1026691
13:00+5s61094100 0.0 1027574
16:00+6s6988100 0.0 1027629
19:00+5sse51092100 0.0 1028528
22:00+4s5892100 0.0 1028387
23 april, fri
fri2301:00+3sse4798100 0.0 1027360
04:00+3sse3598100 0.0 1027255
07:00+3sse3597100 0.0 1028232
10:00+5s348785 0.0 1028382
13:00+8s337695 0.0 1027677
16:00+11se336580 0.0 10261005
19:00+9ese3574100 0.0 1026149
22:00+5e489192 0.0 1026184
24 april, sat
sat2401:00+4ene4893100 0.0 1024219
04:00+4ene5991100 0.0 1023262
07:00+4ene4890100 0.0 1021307
10:00+5ene3595100 0.5 1019208
13:00+5ene3797100 0.9 1018311
16:00+6e3698100 1.7 1016300
19:00+5e2497100 0.3 1015149
22:00+5ene2597100 1.1 1014181
25 april, sun
sun2501:00+5e2598100 0.6 1012185
04:00+5sse2399100 1.1 1011125
07:00+5se369698 0.0 1010234
10:00+6s61194100 2.1 1008951
13:00+8wsw8116894 1.4 10101467
16:00+10wsw8115131 1.6 10111930
19:00+8sw510630 0.3 1012384
22:00+5ssw39774 0.3 1014160